Location: Biltmore Gardens
(41.6070°N, 83.4666°W)
Time: 10:26:22
(UTC+00:00)

Cosmos 2344 - Pass Details

Date: 22 October 2020
Orbit: 1246 x 2997 km, 63.3° (Epoch: 25 November)

Event Time Altitude Azimuth Distance (km) Brightness Sun altitude
Exits shadow 07:54:40 25° 109° (ESE) 2,264 5.1 -44.3°
Drops below altitude 10° 08:00:31 10° 57° (ENE) 3,274 6.3 -43.4°
Sets 08:03:54 0° 45° (NE) 4,345 7.1 -42.8°
